Regional Weather Roundup
Issued by NWS

Home | Current Version | Previous Version | Graphics & Text | Print | Product List | Glossary On
Versions: 1 2 3 4 5 6 7 8 9 10 11 12 13 14 15 16 17 18 19 20 21 22 23 24 25 26 27 28 29 30 31 32 33 34 35 36 37 38 39 40 41 42 43 44 45 46 47 48 49 50
000
ASUS43 KDMX 171307
RWRIA

WEATHER ROUNDUP FOR IOWA
NATIONAL WEATHER SERVICE DES MOINES IA
700 AM CST WED DEC 17 2014

NOTE: "FAIR" INDICATES FEW OR NO CLOUDS BELOW 12,000 FEET WITH NO
SIGNIFICANT WEATHER AND/OR OBSTRUCTIONS TO VISIBILITY.

* - THESE STATIONS ARE NOT NWS STATIONS...THUS NOT UNDER NWS
QUALITY CONTROL.  THEY ALSO DO NOT REPORT WEATHER SUCH
AS PRECIPITATION OR FOG.

IAZ001>003-012>014-020>022-031>034-043>046-171400-
   NORTHWEST IOWA

CITY           SKY/WX    TMP DP  RH WIND       PRES   REMARKS
CARROLL *      CLEAR     10   7  85 W6        30.34R WCI   1
CHEROKEE *     PTCLDY    10   9  92 CALM      30.33S
DENISON *      CLEAR     12   9  85 CALM      30.32S
LE MARS *      CLEAR      9   7  92 CALM      30.35S
ORANGE CITY *  CLEAR      9   5  85 CALM      30.31S
SHELDON *      CLEAR      5   3  92 NW6       30.30F WCI  -6
SIOUX CITY     MOCLDY    11   7  84 CALM      30.36S
SPENCER        MOCLDY     8   4  83 W6        30.31S WCI  -2
STORM LAKE *   CLEAR      9   5  85 NW6       30.32R WCI  -1
$$

IAZ055>058-069>071-079>083-090>094-171400-
   SOUTHWEST IOWA

CITY           SKY/WX    TMP DP  RH WIND       PRES   REMARKS
ATLANTIC *     CLEAR     14  10  85 NW5       30.35R WCI   6
AUDUBON *      CLEAR     12   7  79 CALM      30.34R
CLARINDA *     CLOUDY    19  14  79 N9        30.37F WCI   9
COUNCIL BLFS * PTCLDY    16  14  93 N7        30.32F WCI   6
CRESTON *      CLEAR     14  10  85 N8        30.33S WCI   3
HARLAN  *      CLEAR     14  14 100 CALM      30.38S
LAMONI         PTCLDY    17  12  80 N6        30.33S WCI   9
RED OAK *      CLOUDY    16  12  86 N6        30.36S WCI   7
SHENANDOAH *   CLOUDY    19  16  86 NE9       30.36F WCI   9
$$

IAZ047>049-059>061-072>074-084-171400-
   CENTRAL IOWA

CITY           SKY/WX    TMP DP  RH WIND       PRES   REMARKS
AMES           PTCLDY    13   9  84 NW7       30.33S WCI   3
ANKENY *       CLEAR     14  10  85 NW7       30.34S WCI   4
CHARITON *     CLOUDY    18  14  86 NW10      30.34R WCI   6
DES MOINES     PTCLDY    15   9  76 NW7       30.35R WCI   5
GRINNELL*      PTCLDY    14  10  85 W7        30.32R WCI   4
KNOXVILLE *    PTCLDY    16  10  79 NW9       30.33R WCI   4
MARSHALLTOWN   PTCLDY    14  10  84 W8        30.31S WCI   3
PELLA *        CLOUDY    18  14  86 NW10      30.36R WCI   6
PERRY *          N/A     12  10  92 CALM      30.34S
$$

IAZ004>006-015-016-023>025-035-036-171400-
   NORTH CENTRAL IOWA

CITY           SKY/WX    TMP DP  RH WIND       PRES   REMARKS
ALGONA *       CLEAR     12   9  85 NW7       30.31S WCI   2
CLARION *      CLEAR     12  10  92 W7        30.31S WCI   2
ESTHERVILLE    CLEAR      9   6  88 NW10      30.30S WCI  -5
FORT DODGE *   PTCLDY    10   7  85 W5        30.33R WCI   2
MASON CITY     PTCLDY    10   6  84 NW10      30.30F WCI  -4
FOREST CITY *  FLURRIES  12   7  79 NW7       30.29S WCI   2
IOWA FALLS *     N/A     12  10  92 W8        30.31S WCI   1
$$

IAZ007>011-017>019-026>030-037>042-050>054-066-171400-
   NORTHEAST IOWA

CITY           SKY/WX    TMP DP  RH WIND       PRES   REMARKS
CEDAR RAPIDS   CLOUDY    17  14  88 NW12      30.29F WCI   4
CHARLES CITY * FLURRIES  12   9  85 NW10      30.29S WCI  -1
CLINTON *      CLOUDY    23  16  74 NW15      30.31R WCI  10
DECORAH *      FLURRIES  16  12  86 NW10G16   30.25S WCI   3
DUBUQUE        CLOUDY    19  15  84 W15       30.25S WCI   5
MONTICELLO *   CLOUDY    19  16  86 W13       30.28F WCI   7
OELWEIN *      CLOUDY    14  12  92 NW10      30.28F WCI   1
WATERLOO       CLEAR     12   9  87 W6        30.31S WCI   3
$$

IAZ064-065-067-068-078-171400-
   EAST CENTRAL IOWA

CITY           SKY/WX    TMP DP  RH WIND       PRES   REMARKS
DAVENPORT      CLOUDY    22  15  75 NW13      30.29S WCI  10
IOWA CITY      CLOUDY    20  15  81 NW9       30.33S WCI   9
MT. PLEASANT * CLOUDY    19  14  79 W9        30.33S WCI   9
MUSCATINE *    CLOUDY    21  16  79 NW8       30.33F WCI  12
QUAD CITIES    CLOUDY    22  15  75 W8        30.30S WCI  12
$$

IAZ062-063-075>077-085>089-095>099-171400-
   SOUTHEAST IOWA

CITY           SKY/WX    TMP DP  RH WIND       PRES   REMARKS
BURLINGTON     CLOUDY    20  15  81 N7        30.32F WCI  11
FAIRFIELD *    CLOUDY    19  14  79 NW9       30.33S WCI   9
FORT MADISON * CLOUDY    19  16  86 NW8       30.33F WCI   9
KEOKUK *       CLOUDY    19  16  86 NW9       30.34R WCI   9
OSKALOOSA *    CLOUDY    18  16  93 NW10      30.34R WCI   6
CENTERVILLE *  CLOUDY    18  16  93 NW7       30.35R WCI   8
OTTUMWA        CLOUDY    18  13  80 NW7       30.33R WCI   9
WASHINGTON *   CLOUDY    21  18  86 NW13      30.32F WCI   9
$$

ABBREVIATIONS USED IN REMARKS
   TC - TEMPERATURES IN CELSIUS
  WCI - WIND CHILL INDEX
   HX - HEAT INDEX
  VSB - VISIBILITY
$$



USA.gov is the U.S. government's official web portal to all federal, state and local government web resources and services.